Regional Weather Roundup
Issued by NWS Charleston, SC

Current Version | Previous Version | Text Only | Print | Product List | Glossary Off
Versions: 1 2 3 4 5 6 7 8 9 10 11 12 13 14 15 16 17 18 19 20 21 22 23 24 25 26 27 28 29 30 31 32 33 34 35 36 37 38 39 40 41 42 43 44 45 46 47 48 49 50
000 ASUS42 KCHS 230212 RWRCHS REGIONAL WEATHER ROUNDUP NATIONAL WEATHER SERVICE CHARLESTON SC 1000 PM EDT SAT JUL 22 2017 NOTE: "FAIR" INDICATES FEW OR NO CLOUDS BELOW 12,000 FEET WITH NO SIGNIFICANT WEATHER AND/OR OBSTRUCTIONS TO VISIBILITY. NOT ALL STATIONS ARE QUALITY CONTROLLED. USE DATA WITH CAUTION... ESPECIALLY DEWPOINT OBSERVATIONS. SCZ027-030-031-034>040-042>050-230300- ...SOUTHEAST SOUTH CAROLINA... CITY SKY/WX TMP DP RH WIND PRES REMARKS N CHARLESTON CLEAR 81 74 79 S12 29.98R WATERFRONT PRK N/A 84 78 82 SW8G16 29.96R HX 95 JOHNS ISLAND FAIR 82 77 83 SW12 29.98S HX 91 PINOPOLIS N/A 82 75 78 S5 29.90R MONCKS CORNER FAIR 81 73 78 S7 29.97R SUMMERVILLE FAIR 81 73 78 S3 29.98R BEAUFORT MCAS CLEAR 84 78 82 S3 29.98S HX 95 BEAUFORT ARPT FAIR 82 73 74 S3 29.97S HILTON HEAD IS CLEAR 84 77 79 S5 29.98F HX 94 WALTERBORO CLEAR 81 73 78 S7 29.98S ALLENDALE NOT AVBL ...SOUTHERN MIDLANDS AND PEE DEE... CITY SKY/WX TMP DP RH WIND PRES REMARKS GEORGETOWN FAIR 79 77 94 SW3 29.97S KINGSTREE FAIR 81 73 78 CALM 29.95R ORANGEBURG CLEAR 80 75 84 SW3 29.96R BARNWELL FAIR 84 77 79 CALM 29.96R HX 94 AIKEN FAIR 81 73 78 SW6 30.00R MANNING FAIR 82 79 89 W8G16 29.96R HX 93 COLUMBIA CLEAR 86 74 67 SW3 29.94R HX 94 SUMTER NOT AVBL FLORENCE CLEAR 83 75 77 S6 29.94R HX 90 MYRTLE BEACH CLEAR 82 73 74 SW9 29.96R N MYRTLE BEACH CLEAR 81 76 84 SW17 29.95R $$ GAZ063-065-086>088-099>101-113>116-118-119-134>141-150-230300- ...SOUTHEAST GEORGIA... CITY SKY/WX TMP DP RH WIND PRES REMARKS SAVANNAH ARPT CLEAR 82 72 71 SW6 29.98S HUNTER AAF NOT AVBL FORT STEWART NOT AVBL STATESBORO CLEAR 82 74 77 S6 29.97S SYLVANIA CLEAR 81 75 82 CALM 29.98S CLAXTON FAIR 83 76 79 CALM 29.98R HX 91 ...CSRA...CENTRAL AND FAR SOUTHEAST GEORGIA... CITY SKY/WX TMP DP RH WIND PRES REMARKS THOMSON CLEAR 81 75 80 W3 30.02R AUGUSTA-BUSH CLEAR 82 72 71 S5 29.94R AUGUSTA-DANIEL CLEAR 85 71 63 SW6 29.97R HX 90 SWAINSBORO FAIR 81 77 89 CALM 29.98S VIDALIA CLEAR 82 77 83 S5 29.98S HX 91 EASTMAN FAIR 82 69 66 CALM 30.00S HAZLEHURST FAIR 83 79 86 SW5 29.98R HX 94 ALMA CLEAR 82 75 79 SW5 29.99R WAYCROSS CLEAR 82 81 98 S7 30.01R HX 94 JESUP NOT AVBL BAXLEY FAIR 81 81 100 SW3 29.99R HX 91 BRUNSWICK CLEAR 79 75 89 SW9 30.01R SAINT SIMONS PTCLDY 79 74 84 SW15 30.01R $$ SCZ027-028-034-036>038-045-046-048>050-GAZ119-141-230300- ...LAKE AND SUPPLEMENTAL COASTAL OBSERVATIONS... STATION/POSITION TIME TEMP WIND PRES WAVE SWELL AIR SEA DIR/SP/G HT/PER HT/PER/DIR (UTC) (F) (DEG/KT/KT) (MB) (FT/S) (FT/S/D) WINYAH BAY 0045 83 210/ 13 1014.0 LAKE MURRAY NOT AVBL ACE BASIN NERRS 0045 84 170/ 1 1015.0 FORT PULASKI 0142 84 86 230/ 6/ 9 1015.4R SAPELO ISLAND 0100 82 200/ 8 1015.0 $$ ANZ835-935-AMZ111-154-330-350-352-354-370-450-454-472-230300- ...C-MAN AND BUOY OBSERVATIONS... STATION/POSITION TIME TEMP WIND PRES WAVE SWELL AIR SEA DIR/SP/G HT/PER HT/PER/DIR (UTC) (F) (DEG/KT/KT) (MB) (FT/S) (FT/S/D) BUOY 41004 0150 83 84 220/ 19/ 23 1015.0R 4/ 9 2/130/ 9 BUOY 41008 0150 80 82 210/ 16/ 17 1015.3R 3/10 2/140/10 FOLLY BEACH CMAN 0200 83 210/ 19/ 21 1015.8S CAPERS NEARSHORE 0108 81 83 220/ 16/ 21 1014.4R FRIPP NEARSHORE 0108 83 84 220/ 16/ 21 1014.8R STATION/POSITION TIME TEMP WIND PRES WAVE SWELL AIR SEA DIR/SP/G HT/PER HT/PER/DIR (UTC) (F) (DEG/KT/KT) (MB) (FT/S) (FT/S/D) 5E ST. MARYS GA 0130 82 N/A 2/10 FRYING PAN BUOY 0150 83 84 220/ 17/ 23 1014.6R 4/ 4 2/150/ 9 BUOY 41025 0150 84 81 230/ 23/ 27 1013.3S 5/ 5 2/140/ 8 CAPE LOOKOUT NC 0200 81 220/ 12/ 17 1014.0R BUOY 41002 0150 84 84 220/ 17/ 19 1017.3R 4/ 9 3/100/ 9 BUOY 41010 0150 83 85 190/ 6/ 8 1017.3F 3/ 8 2/ 80/ 8 ST AUGUSTINE FL 0200 75 80 200/ 5/ 6 1017.1R $$

USA.gov is the U.S. government's official web portal to all federal, state and local government web resources and services.